Wind_Speed
108 108 107 107 106 106 106 105 104 103 102 101 101 100 100 99 98 97 97 96 95 94 93 92 90 89 88 87 86 84 83 82 81 79 78 77 76 75 74 73 72 71 69 68 67 66 65 64 63 62 61 60 59 58 57 56 55 54 53 52 51 50 49 48 47 46 45 44 43 43 42 41 40 40 39 39 38 38 37 37 36 36 35 34 34 34
108 108 108 107 106 106 105 104 104 103 102 101 100 100 99 99 98 97 96 95 94 93 91 90 89 88 86 85 84 82 81 80 79 78 76 75 74 73 72 71 70 69 68 67 65 64 63 62 61 60 59 58 58 57 56 55 54 53 52 51 50 49 48 47 46 45 44 43 42 41 40 40 39 39 38 38 37 37 36 36 35 35 34 34 33 33
109 108 108 107 106 105 105 104 103 102 101 100 100 99 99 98 97 96 95 94 93 91 90 89 87 86 85 83 82 81 79 78 77 76 75 74 73 72 71 70 68 67 66 65 64 63 62 61 60 59 58 57 56 55 54 53 52 51 50 49 48 47 46 45 44 43 43 42 41 40 39 39 38 38 37 37 36 36 35 35 34 34 33 33 33 32
109 108 108 107 106 105 104 104 103 102 101 100 99 98 98 97 96 95 94 92 91 90 88 87 85 84 83 81 80 79 78 76 75 74 73 72 71 70 69 68 67 66 64 63 62 61 60 59 58 57 56 55 55 54 53 52 51 50 49 48 47 46 45 44 43 42 41 41 40 39 39 38 38 37 37 36 36 35 35 34 34 33 33 32 32 31
109 108 107 107 106 105 104 103 102 101 100 99 98 97 96 95 94 93 92 90 89 88 86 85 83 82 80 79 78 77 76 75 73 72 71 70 69 68 67 66 65 64 63 62 61 60 59 58 57 56 55 54 53 52 51 50 49 49 48 47 46 45 44 43 42 41 40 40 39 38 38 37 37 36 36 36 35 35 34 34 33 33 32 32 31 31
108 108 107 106 105 104 103 102 101 100 99 98 97 96 95 94 92 91 90 88 87 86 84 83 81 80 78 77 76 75 74 73 72 71 70 69 68 66 65 64 63 62 61 60 59 58 57 56 55 54 53 52 52 51 50 49 48 47 46 45 44 44 43 42 41 40 39 38 38 37 37 36 36 36 35 35 34 34 34 33 33 32 32 31 31 31
108 107 106 105 104 104 103 101 100 99 98 97 96 94 93 91 90 89 87 86 85 83 82 81 79 78 76 75 74 73 72 71 70 69 68 67 66 65 64 63 62 61 60 59 58 57 56 55 54 53 52 51 50 49 48 47 47 46 45 44 43 42 41 41 40 39 38 37 37 36 36 36 35 35 35 34 34 33 33 32 32 32 31 31 31 30
107 106 105 104 103 102 101 100 99 97 96 95 94 92 91 89 88 86 85 84 82 81 80 78 77 76 74 73 72 71 70 69 68 67 66 65 64 63 62 61 60 59 58 57 56 55 54 53 52 51 50 49 48 48 47 46 45 44 44 43 42 41 40 39 38 38 37 36 36 36 35 35 35 34 34 34 33 33 32 32 32 31 31 31 30 30
106 105 104 103 102 101 100 99 97 96 94 92 91 90 88 87 85 84 83 82 80 79 77 76 75 74 72 71 70 69 69 68 67 66 65 64 63 62 61 60 59 58 57 55 54 53 53 52 51 50 49 48 47 46 45 45 44 43 42 42 41 40 39 38 37 36 36 35 35 35 35 34 34 34 33 33 32 32 32 31 31 31 30 30 30 30
104 103 102 101 100 99 98 96 95 93 92 90 88 87 85 84 83 82 81 79 78 77 75 74 73 72 71 70 69 68 67 66 65 64 63 62 61 60 59 58 57 56 55 54 53 52 51 50 49 48 47 47 46 45 44 44 43 42 41 40 40 39 38 37 36 36 35 35 34 34 34 33 33 33 33 32 32 32 31 31 31 30 30 30 30 30
102 101 100 99 98 97 95 94 92 91 89 87 86 84 83 81 80 79 78 77 76 75 73 72 71 70 69 68 67 66 65 64 63 63 61 60 59 59 57 56 55 54 53 52 51 50 49 49 48 47 46 45 45 44 43 43 42 41 40 39 39 38 37 36 35 35 34 34 34 33 33 33 33 32 32 32 31 31 31 30 30 30 30 29 29 29
100 99 98 97 95 94 92 91 89 88 86 84 83 82 81 79 78 77 76 75 74 73 72 70 69 68 67 66 65 65 64 63 62 61 60 59 58 57 56 55 54 53 52 51 50 49 48 47 46 46 45 44 44 43 42 42 41 40 39 39 38 37 36 35 35 34 34 33 33 33 33 32 32 32 32 31 31 31 31 30 30 30 30 29 29 29
98 96 95 94 92 91 90 88 86 85 83 82 81 79 78 77 76 75 74 73 72 71 70 68 67 66 65 64 63 63 62 61 60 59 58 57 56 55 54 53 52 51 50 49 48 48 47 46 45 44 44 43 43 42 41 41 40 39 38 38 37 36 35 34 34 33 33 33 33 32 32 32 32 32 32 31 31 31 31 30 30 30 30 30 30 29
95 94 92 91 90 88 87 85 84 82 81 80 78 77 76 75 74 73 72 71 70 69 68 66 65 65 64 63 62 61 60 59 58 57 56 55 54 53 52 51 50 49 48 48 47 46 46 45 44 43 43 42 42 41 40 40 39 38 38 37 36 35 35 34 33 33 33 33 32 32 32 32 32 32 31 31 31 31 31 31 31 30 30 30 30 30
92 91 89 88 87 86 84 83 81 80 79 78 76 75 74 73 72 71 70 69 68 67 66 65 64 63 62 61 60 59 58 57 56 55 55 54 53 51 50 49 49 48 47 46 46 45 44 44 43 42 42 41 41 40 40 39 38 38 37 36 36 35 34 34 33 33 32 32 32 32 32 32 32 32 32 31 31 31 31 31 31 31 31 31 31 31
89 88 87 86 84 83 82 80 79 78 77 76 74 73 72 71 70 69 68 67 66 65 64 63 62 61 61 60 58 57 56 55 54 54 53 52 51 50 49 48 47 46 46 45 44 44 43 43 42 42 41 41 40 40 39 38 38 37 37 36 35 34 34 33 33 33 32 32 32 32 32 32 32 32 32 32 32 32 31 31 31 31 31 31 31 31
87 85 84 83 82 81 80 78 77 76 75 74 73 72 70 69 68 67 66 65 64 63 62 61 60 59 59 58 57 55 54 53 52 52 51 50 49 48 47 46 46 45 45 44 43 43 42 42 41 41 40 40 40 39 39 38 37 37 36 36 35 34 34 33 33 33 32 32 32 32 32 32 32 32 32 32 32 32 32 32 32 32 32 32 32 32
84 83 82 81 80 79 78 76 75 74 73 72 71 70 69 67 66 65 64 63 62 61 60 59 58 57 56 55 55 54 52 51 51 50 49 48 48 47 46 45 44 44 43 43 42 42 41 41 40 40 40 39 39 38 38 38 37 36 36 35 35 34 34 33 33 33 33 33 32 33 32 32 32 32 32 32 32 32 32 32 32 32 32 32 32 33
82 81 80 79 78 77 75 74 73 72 71 70 69 67 66 65 64 63 62 61 60 59 58 57 56 55 54 53 53 52 51 49 49 48 48 47 46 46 45 44 43 43 42 42 41 41 41 40 40 39 39 39 38 38 38 37 37 36 36 35 34 34 34 33 33 33 33 33 33 33 33 33 33 33 33 33 33 33 33 33 33 33 33 33 33 33
80 79 78 77 76 74 73 72 71 70 68 67 66 65 64 63 62 61 60 59 58 57 56 55 54 53 52 51 51 50 49 48 47 46 46 46 45 45 44 43 42 42 41 41 41 40 40 40 39 39 39 38 38 37 37 37 36 36 36 35 35 34 34 34 33 33 33 33 33 33 33 33 33 33 33 33 33 34 34 34 34 34 34 34 34 34
78 77 76 74 73 72 71 70 69 67 66 65 63 62 62 61 60 59 58 57 56 55 54 53 52 51 50 49 48 48 47 46 45 45 45 44 44 43 43 42 41 41 41 40 40 40 39 39 39 38 38 38 37 37 37 36 36 36 35 35 35 35 34 34 34 34 34 34 34 34 34 34 34 34 34 34 34 34 34 34 35 35 35 35 35 35
75 74 73 72 71 69 68 67 66 65 63 62 61 60 59 58 57 57 56 55 53 53 52 51 50 49 48 47 47 46 46 45 44 44 44 43 43 43 42 41 40 40 40 40 40 39 39 39 38 38 38 37 37 37 36 36 36 36 36 35 35 35 35 35 34 34 34 34 34 34 34 35 35 35 35 35 35 35 35 35 35 36 36 36 36 36
73 71 70 69 68 67 65 64 63 62 61 60 59 58 57 56 55 54 53 52 51 50 50 49 48 48 47 46 45 45 44 44 43 43 42 42 42 42 41 41 40 40 40 39 39 39 39 38 38 38 37 37 37 36 36 36 36 36 36 36 35 35 35 35 35 35 35 35 35 35 35 35 35 35 36 36 36 36 36 36 36 37 37 37 37 37
70 68 67 66 65 64 63 61 60 59 59 57 57 56 55 54 53 52 51 50 49 49 48 47 47 46 45 45 44 43 43 42 42 42 41 41 41 41 41 40 40 40 39 39 39 38 38 38 38 37 37 37 37 36 36 36 36 36 36 36 36 36 36 36 36 35 36 35 36 36 36 36 36 36 36 36 37 37 37 37 37 37 38 38 38 38
67 65 64 63 62 61 60 59 58 57 56 55 54 53 53 52 51 50 49 48 47 47 46 46 45 44 44 43 42 42 41 41 41 41 41 41 41 41 41 40 40 39 39 39 38 38 38 38 38 37 37 37 37 36 36 36 36 36 36 36 36 36 36 36 36 36 36 36 36 36 36 36 37 37 37 37 37 37 38 38 38 38 39 39 39 39
64 63 62 60 59 58 57 56 56 55 54 53 52 51 50 50 49 48 47 47 46 45 44 44 44 43 42 41 41 40 40 40 40 40 40 40 40 41 41 40 40 39 39 39 38 38 38 38 37 37 37 37 37 36 36 36 36 36 36 36 37 37 37 37 37 37 37 37 37 37 37 37 37 37 38 38 38 38 38 39 39 39 39 40 40 40
61 60 59 58 57 56 55 54 53 52 52 51 50 49 48 48 47 46 46 45 45 44 43 43 42 42 41 40 40 40 40 40 40 40 40 40 40 40 40 40 40 39 39 39 38 38 38 37 37 37 37 37 37 37 37 37 37 37 37 37 37 37 37 37 37 37 37 37 38 38 38 38 38 38 38 38 39 39 39 39 40 40 40 41 41 41
59 58 57 56 55 54 53 52 51 51 50 49 48 48 47 46 46 45 45 44 43 42 42 41 41 40 40 39 39 39 39 39 39 40 39 39 40 40 40 40 40 40 40 39 39 38 38 38 37 37 37 37 37 37 37 37 37 37 37 37 38 38 38 38 38 38 38 38 38 38 38 38 39 39 39 39 39 40 40 40 40 41 41 41 42 42
56 56 55 54 53 52 51 50 50 49 48 47 47 46 46 45 45 44 44 43 42 41 41 40 40 39 39 39 39 39 39 39 39 39 39 39 39 40 40 40 40 40 40 40 39 39 38 38 38 38 38 38 37 37 37 37 37 37 38 38 38 38 38 38 39 39 39 39 39 39 39 39 39 39 39 40 40 40 40 41 41 41 42 42 42 43
54 53 53 52 51 50 49 49 48 47 47 46 46 45 45 44 44 43 43 42 41 40 40 40 39 39 38 38 38 39 39 39 39 39 38 39 39 40 40 40 40 40 40 40 40 40 39 39 38 38 38 38 38 38 38 38 38 38 38 38 38 38 39 39 39 39 39 40 40 40 40 40 40 40 40 40 41 41 41 41 42 42 42 43 43 44
52 51 51 50 49 49 48 47 47 46 46 45 45 44 44 44 43 42 42 41 40 40 39 39 38 38 38 38 38 39 39 39 39 39 38 39 40 40 40 41 41 41 41 40 40 40 40 40 39 39 39 39 39 38 38 38 38 38 38 39 39 39 39 39 40 40 40 40 40 41 41 41 41 41 41 41 41 41 42 42 42 43 43 44 44 44
50 50 49 49 48 48 47 47 46 45 45 45 44 44 43 43 42 41 41 40 39 39 38 38 38 38 38 38 38 39 39 39 39 39 38 39 40 40 41 41 41 41 41 41 41 41 41 41 41 40 40 40 39 39 39 39 39 39 39 39 39 39 39 40 40 41 41 41 41 41 41 41 41 41 42 42 42 42 42 43 43 43 44 44 45 45
49 48 48 48 47 47 46 46 45 45 44 44 43 43 42 42 41 40 39 39 38 38 38 38 37 37 38 38 38 39 40 40 39 39 39 39 40 41 41 41 42 42 42 42 42 42 42 42 42 41 41 41 40 40 40 39 39 39 39 39 40 40 40 40 41 41 41 42 42 42 42 42 42 42 42 43 43 43 43 43 44 44 44 45 45 46
48 47 47 47 46 46 45 45 44 44 44 43 42 42 41 40 40 39 39 38 38 38 38 37 37 37 38 38 39 39 40 40 40 39 39 40 41 41 41 42 42 42 42 43 43 43 42 43 42 42 42 42 41 41 41 40 40 40 40 40 40 40 41 41 41 42 42 42 42 42 43 43 43 43 43 43 43 44 44 44 44 45 45 45 46 46
47 46 46 46 45 45 45 44 44 43 43 42 41 41 40 39 39 38 38 38 38 38 38 38 38 38 38 38 39 40 41 41 40 40 40 40 41 42 42 42 43 43 43 43 43 43 43 43 43 43 43 43 43 42 41 41 41 41 41 41 41 41 41 42 42 42 42 43 43 43 43 43 43 43 44 44 44 44 45 45 45 45 46 46 46 47
46 46 45 45 45 44 44 43 43 42 42 41 40 40 39 39 38 38 38 38 38 38 38 38 38 38 39 39 40 41 41 41 41 41 41 41 42 42 43 43 44 44 44 44 44 44 44 44 44 44 44 44 44 43 42 42 42 42 42 42 42 42 42 42 42 43 43 43 43 43 43 44 44 44 44 45 45 45 45 45 46 46 46 47 47 47
45 45 45 44 44 43 43 43 42 41 41 40 40 39 38 38 38 38 38 38 38 38 38 38 38 39 39 40 41 41 42 42 42 41 42 42 42 43 44 44 44 44 45 45 45 45 45 45 45 45 44 44 44 44 44 43 42 42 42 42 43 43 43 43 43 43 44 44 44 44 44 44 44 45 45 45 45 46 46 46 46 47 47 47 48 48
44 44 44 43 43 43 42 42 41 41 40 39 39 39 38 38 38 38 38 38 38 38 38 38 39 39 40 41 41 42 42 42 42 43 43 43 43 44 45 45 45 45 45 46 46 46 46 46 46 45 45 45 45 44 44 44 44 43 43 43 43 44 44 44 44 44 44 44 44 44 44 45 45 45 45 46 46 46 46 46 47 47 47 48 48 48
43 43 43 42 42 42 41 41 40 40 39 39 39 38 38 38 38 38 38 38 38 38 39 39 39 40 41 41 42 43 43 43 43 43 44 44 44 45 45 46 46 47 46 46 46 46 46 46 46 46 46 46 45 45 45 44 44 44 44 44 44 45 45 45 45 45 45 44 45 45 45 45 45 46 46 46 46 46 47 47 47 47 48 48 49 49
42 42 42 41 41 41 40 40 40 39 39 39 38 38 38 39 39 39 39 39 39 39 39 40 40 41 42 42 43 43 44 44 44 44 45 45 45 46 46 47 47 47 47 47 47 47 47 47 47 47 46 46 46 46 45 45 45 45 45 45 45 45 45 45 45 45 45 45 45 45 45 45 46 46 46 46 47 47 47 47 48 48 48 49 49 49
41 41 41 40 40 40 39 39 39 39 39 38 38 39 39 39 39 39 39 39 39 40 40 41 41 42 43 43 44 44 45 45 45 45 46 46 47 47 47 48 48 48 48 48 48 48 48 48 48 47 47 46 46 46 46 45 45 45 45 46 46 46 46 46 46 46 45 45 45 45 46 46 46 47 47 47 47 47 47 47 48 48 49 49 49 50
40 40 39 39 39 39 39 39 38 38 39 39 39 39 39 39 39 39 39 40 40 41 41 42 42 43 44 44 45 45 46 46 46 47 47 47 48 48 48 49 49 49 49 49 49 49 49 49 48 48 47 47 46 46 46 45 45 45 46 46 47 47 47 47 46 46 46 46 46 46 46 46 47 47 47 47 47 47 47 48 48 49 49 49 50 50
39 39 39 39 38 38 38 38 38 39 39 39 39 39 39 39 40 40 40 41 41 42 42 43 43 44 45 46 46 47 47 47 47 48 48 49 49 49 49 49 49 49 50 50 50 50 50 50 49 49 48 47 47 46 46 45 45 45 46 46 47 47 48 47 47 46 46 46 46 46 46 47 47 47 47 48 48 48 48 48 49 49 49 50 50 51
38 38 38 38 38 38 38 38 39 39 39 39 39 40 40 40 40 41 41 42 43 43 44 44 45 45 46 47 48 48 48 48 49 49 49 50 50 50 50 50 50 50 50 51 51 51 51 51 50 49 49 48 47 46 46 45 45 45 46 46 47 48 48 48 47 47 47 47 47 47 47 47 47 48 48 48 48 48 48 49 49 50 50 50 51 51
38 38 38 38 38 38 38 38 39 39 39 40 40 40 41 41 42 42 43 43 44 44 45 45 46 47 47 48 48 49 49 50 50 50 51 51 51 51 51 51 51 51 51 51 52 52 52 52 51 50 49 48 48 47 46 45 45 45 46 46 47 48 48 48 48 48 48 48 48 48 48 48 48 48 48 48 48 49 49 49 50 50 50 51 51 52
37 38 38 38 38 38 39 39 39 40 40 40 41 41 42 42 43 43 44 45 45 46 46 46 47 48 49 49 49 50 51 51 52 52 52 52 52 52 52 52 52 52 52 52 52 52 52 52 52 51 50 49 48 47 46 46 45 45 46 46 47 48 48 48 48 48 48 48 49 48 48 48 48 49 49 49 49 49 49 50 50 51 51 51 52 52
37 38 38 38 39 39 39 40 40 41 41 42 42 43 43 44 44 45 45 46 46 47 47 48 48 49 50 50 51 51 52 53 53 54 54 54 54 54 53 53 53 53 53 53 53 53 53 52 52 51 51 50 49 48 47 46 45 45 46 46 47 47 48 48 48 48 49 49 49 49 49 49 49 49 49 49 50 50 50 50 50 51 51 52 52 53
38 38 39 39 40 40 41 41 42 42 43 44 44 45 45 45 46 46 47 47 48 48 49 49 50 50 51 51 52 52 53 54 55 55 55 55 55 55 55 55 55 55 54 54 54 54 53 53 52 51 51 50 50 49 48 47 46 46 46 46 47 47 48 48 48 48 49 49 50 50 50 50 50 50 50 50 50 51 51 51 51 51 52 52 53 53
39 40 41 41 42 42 43 43 44 44 45 45 46 46 47 47 47 48 48 49 49 49 50 51 51 52 52 53 53 54 55 56 56 57 57 56 56 56 56 56 56 56 56 55 55 54 54 53 53 52 51 50 50 49 49 48 47 47 47 47 47 47 48 48 48 48 49 49 50 50 50 50 51 51 51 51 51 51 51 51 52 52 52 53 54 54
42 42 43 43 44 44 45 45 46 46 47 47 48 48 49 49 49 50 50 50 51 51 52 52 53 53 54 55 55 56 56 57 58 58 58 57 57 57 58 57 57 57 57 57 56 55 55 54 53 52 51 50 50 49 49 49 48 48 48 48 48 48 48 48 48 48 49 49 50 50 51 51 51 51 52 52 52 53 53 52 52 53 53 54 54 55
44 45 45 45 46 46 47 47 48 48 49 49 50 50 51 51 51 51 52 52 52 53 53 54 54 55 56 57 57 57 58 58 59 59 59 59 59 59 59 59 59 58 58 58 57 56 55 55 54 53 52 50 49 49 49 49 49 49 49 48 48 48 48 48 49 49 49 49 50 50 51 51 52 52 52 53 53 54 54 54 54 54 54 54 55 56
Wind_Direction
292 292 292 293 293 294 294 295 295 296 296 296 297 297 297 297 297 298 298 298 298 298 298 298 298 298 298 299 299 299 299 299 299 300 300 300 300 300 300 300 300 300 300 300 301 301 301 300 301 301 301 301 301 301 301 301 301 302 302 302 302 302 302 302 302 302 302 302 302 303 303 303 303 303 303 303 302 302 302 302 302 301 300 299 299 297
292 292 292 293 293 294 294 295 295 295 296 296 296 296 297 297 297 297 297 297 297 298 298 298 298 298 298 298 298 298 298 299 299 299 299 299 299 299 299 299 299 300 300 300 300 300 300 300 300 300 300 300 301 301 301 301 301 301 301 301 301 301 301 301 301 301 302 302 302 302 302 302 302 302 302 303 303 303 303 303 302 302 301 300 299 298
292 292 292 293 293 293 294 294 295 295 295 296 296 296 296 296 297 297 297 297 297 297 297 297 297 297 297 298 298 298 298 298 298 298 298 298 298 298 299 299 299 299 299 299 299 299 299 299 299 300 300 300 300 300 300 300 301 301 301 301 301 301 301 301 301 301 301 301 301 302 302 302 302 302 303 303 303 303 303 303 303 302 302 301 300 300
291 292 292 292 293 293 294 294 294 295 295 295 295 296 296 296 296 296 296 296 296 296 296 296 297 297 297 297 297 297 297 297 297 297 297 298 298 298 298 298 298 298 298 298 298 298 299 299 299 299 299 300 300 300 300 300 300 300 300 300 300 300 300 300 300 301 301 301 301 302 302 302 302 302 303 303 303 304 303 303 303 303 302 302 301 300
291 291 292 292 293 293 293 294 294 295 295 295 295 295 295 296 296 296 296 296 296 296 296 296 296 296 296 296 296 296 296 296 297 297 297 297 297 297 297 297 297 298 298 298 298 298 298 298 298 299 299 299 299 299 299 300 300 300 300 300 300 300 300 300 300 301 301 301 301 302 302 302 302 303 303 303 303 304 304 304 303 303 303 302 302 301
291 291 292 292 293 293 293 294 294 294 295 295 295 295 295 295 295 295 295 295 295 295 295 295 295 295 296 296 296 296 296 296 296 296 296 296 296 296 296 296 297 297 297 297 297 297 298 298 298 298 298 299 299 299 299 299 299 299 299 299 299 299 299 300 300 300 301 301 301 302 302 302 302 303 303 303 303 304 304 304 303 303 303 302 302 301
291 291 292 292 293 293 293 294 294 294 294 294 295 295 295 295 294 294 294 294 294 294 294 295 295 295 295 295 295 295 295 295 295 295 295 295 295 296 296 296 296 296 296 296 297 297 297 297 298 298 298 298 298 299 299 299 299 299 299 299 299 299 299 299 300 300 300 301 301 301 301 302 302 302 303 303 303 303 303 303 303 303 303 302 302 302
291 292 292 292 293 293 293 294 294 294 294 294 294 294 294 294 294 294 294 293 293 294 294 294 294 294 294 294 294 294 294 294 294 294 294 294 295 295 295 295 295 295 295 296 296 296 297 297 297 297 298 298 298 298 298 298 298 298 298 298 298 298 298 299 299 299 300 300 300 301 301 301 302 302 303 303 303 303 303 303 303 303 303 303 302 302
291 292 292 292 293 293 293 293 293 293 293 293 293 293 293 293 293 293 293 293 293 293 293 293 293 293 293 293 293 293 293 293 293 293 294 294 294 294 294 294 294 294 295 295 295 296 296 296 297 297 297 297 297 297 297 297 297 297 297 297 297 297 298 298 298 299 299 299 299 300 300 301 301 302 302 302 303 303 303 303 303 303 303 303 303 302
291 291 292 292 292 292 293 293 293 293 293 293 293 293 293 293 293 292 292 292 292 292 292 292 292 292 292 292 292 292 292 292 293 293 293 293 293 293 293 293 294 294 294 295 295 295 296 296 296 297 297 297 297 297 296 296 296 296 296 296 296 296 297 297 297 298 298 298 299 299 300 300 301 301 302 302 303 303 303 303 304 304 304 303 303 303
291 291 291 292 292 292 292 292 292 292 292 292 292 292 292 292 292 292 291 292 292 292 292 291 291 291 291 291 291 291 291 291 291 292 292 292 292 292 292 293 293 293 294 294 295 295 295 296 296 296 296 296 296 296 296 295 295 295 295 295 295 295 295 296 296 296 297 297 297 298 299 299 300 300 301 302 302 303 303 303 304 304 304 303 303 303
290 291 291 291 291 291 291 291 291 292 291 291 291 291 291 291 291 291 291 291 291 291 291 291 291 291 290 290 290 290 290 290 291 291 291 291 291 291 292 292 293 293 293 294 294 295 295 295 296 296 295 295 295 295 294 294 294 294 294 294 294 294 294 295 295 295 296 296 297 297 298 299 299 300 300 301 301 302 302 303 303 303 303 303 303 303
290 290 290 290 290 290 290 291 291 291 291 290 290 290 290 290 290 290 290 290 290 290 290 290 290 290 290 289 289 290 290 290 290 290 290 290 290 291 291 292 292 293 293 294 294 294 295 295 295 295 294 294 294 293 293 293 293 293 293 293 293 293 293 293 294 294 295 295 296 296 297 297 298 298 299 300 300 301 301 302 302 302 303 303 303 302
289 289 289 289 289 289 290 290 290 290 290 290 289 289 289 289 289 289 289 289 289 289 289 289 289 289 289 289 289 289 289 289 289 289 289 289 290 290 291 291 292 292 293 293 294 294 294 294 294 294 294 293 293 292 292 292 292 292 292 292 292 292 292 292 293 293 293 294 295 295 296 296 297 297 298 299 299 300 300 301 301 302 302 302 302 302
288 288 289 289 289 289 289 289 289 289 289 289 289 289 288 288 288 288 288 288 288 288 288 288 288 288 288 288 288 288 288 288 288 288 288 289 289 290 290 291 291 292 292 293 293 293 294 294 293 293 293 292 292 292 291 291 291 291 290 290 290 291 291 291 292 292 292 293 293 294 295 295 296 296 297 298 298 299 300 300 301 301 301 301 301 301
288 288 288 288 288 288 288 288 288 288 288 288 288 288 288 287 287 287 287 287 287 287 287 287 287 287 287 287 287 287 287 287 287 287 288 288 289 289 290 290 291 291 292 292 292 293 293 293 293 292 292 291 291 291 291 290 290 290 290 290 290 290 290 290 290 291 291 292 292 293 293 294 295 295 296 297 298 298 299 299 300 300 301 301 301 301
287 287 287 287 288 288 288 288 288 287 287 287 287 287 287 287 287 287 286 286 286 286 286 286 285 286 286 286 286 286 286 286 286 287 287 288 288 289 289 290 290 291 291 292 292 292 292 292 292 291 291 291 290 290 290 290 289 289 289 289 289 289 289 289 289 290 290 290 291 291 292 293 294 294 295 296 297 297 298 299 299 300 300 301 301 301
287 287 287 287 287 287 287 287 287 287 286 286 286 286 286 286 286 286 285 285 285 285 285 285 285 285 285 285 285 285 285 285 286 286 287 287 288 288 289 290 290 290 291 291 291 291 292 291 291 291 290 290 290 289 289 289 288 288 288 288 288 288 288 288 288 289 289 289 290 291 291 292 293 293 294 295 296 297 297 298 299 300 300 300 301 301
286 286 286 286 286 286 286 286 286 286 286 285 285 285 285 285 285 284 284 284 284 284 284 284 284 284 284 284 284 284 285 285 285 286 286 286 287 288 289 289 290 290 291 291 291 291 291 291 290 290 289 289 289 289 288 288 288 287 287 287 287 287 287 287 287 288 288 289 289 290 290 291 292 293 293 294 295 296 297 297 298 299 300 300 301 301
285 285 285 285 285 285 285 285 285 285 285 285 284 284 284 284 283 283 283 283 283 283 283 283 283 283 283 283 283 284 284 284 285 285 285 286 286 287 288 289 289 290 290 290 290 291 291 290 290 290 289 289 288 288 288 287 287 287 287 286 287 287 287 287 287 287 287 288 288 289 290 290 291 292 293 294 294 295 296 297 298 298 299 300 301 301
285 285 284 285 284 284 284 284 284 284 284 284 283 283 283 283 282 282 282 282 282 282 282 282 282 282 282 282 283 283 283 284 284 284 285 285 286 287 288 288 289 289 290 290 290 290 290 290 290 289 289 289 288 288 288 287 287 286 286 286 286 286 286 286 287 287 287 287 288 288 289 290 290 291 292 293 294 295 295 296 297 298 299 300 300 301
284 284 284 284 283 283 283 283 283 283 283 283 282 282 282 282 281 281 281 281 281 281 281 281 281 281 282 282 282 283 283 283 283 283 284 285 285 286 287 288 289 289 289 290 290 290 290 290 289 289 289 289 288 288 287 287 286 286 286 286 286 286 286 286 286 287 287 287 288 288 289 289 290 291 291 292 293 294 295 296 296 297 298 299 300 301
283 283 283 283 283 283 283 283 282 282 282 282 281 281 281 281 281 281 281 280 280 280 280 280 281 281 281 281 281 282 282 282 282 283 284 284 285 286 287 288 288 288 289 289 290 290 290 289 289 289 289 289 288 288 287 287 286 286 286 286 286 286 286 286 286 287 287 287 287 288 288 289 290 290 291 292 293 293 294 295 296 297 297 298 299 300
283 283 282 282 282 282 282 282 281 281 281 281 280 280 280 280 280 280 280 280 280 280 280 280 280 280 280 280 281 281 281 281 282 283 283 284 285 286 287 287 288 288 289 289 290 290 290 290 290 289 289 289 289 288 287 287 286 286 286 286 286 286 286 286 286 286 287 287 287 288 288 289 289 290 291 292 292 293 294 295 295 296 297 298 299 299
282 282 282 281 281 281 281 281 280 280 280 280 280 280 280 279 279 279 279 279 279 279 279 279 279 279 279 280 280 280 280 281 281 282 283 284 284 285 286 287 288 289 289 290 290 290 290 290 290 290 290 289 289 288 288 287 287 286 286 285 285 285 286 286 286 286 287 287 287 288 288 289 289 290 291 291 292 293 293 294 295 295 296 297 298 299
281 281 280 280 280 280 280 280 280 279 279 279 279 279 279 279 279 279 278 278 278 278 278 279 279 278 279 279 278 279 279 280 281 281 282 283 284 285 286 287 288 289 290 290 290 291 291 290 290 290 290 290 289 289 288 288 287 287 286 285 285 285 285 286 286 286 286 287 287 288 288 289 289 290 291 291 292 292 293 294 294 295 296 296 297 298
280 280 280 280 279 279 279 279 279 279 278 278 278 278 278 278 278 278 278 278 278 278 278 277 277 277 277 277 277 277 278 279 280 280 282 283 284 285 286 287 289 289 290 291 291 291 291 291 291 291 291 290 290 290 289 288 288 287 286 286 286 285 285 285 286 286 286 287 287 288 288 289 289 290 290 291 292 292 293 293 294 295 295 296 297 297
280 280 279 279 279 279 278 278 278 278 278 278 278 277 277 277 277 277 277 277 277 277 276 276 276 275 275 275 275 276 277 278 279 280 281 282 284 285 286 288 289 290 291 291 292 292 292 291 291 291 291 291 290 290 289 289 288 287 287 286 286 285 285 285 285 286 286 287 287 288 288 289 289 290 291 291 292 292 293 293 294 294 295 295 296 297
279 279 279 279 279 278 278 278 277 277 277 277 277 276 276 276 276 276 276 276 276 275 274 274 273 273 273 274 274 275 276 277 278 279 281 282 283 284 286 288 289 290 291 292 292 292 292 292 291 291 291 291 290 290 289 289 288 288 287 286 286 286 285 285 286 286 286 287 287 288 288 289 289 290 291 291 291 292 292 293 293 294 294 295 296 296
279 279 278 278 278 278 277 277 277 277 276 276 276 275 275 275 275 275 275 275 274 273 272 272 272 272 272 272 273 274 275 276 278 279 281 282 283 284 286 288 289 290 291 292 293 293 293 292 291 291 291 290 290 290 290 289 289 288 288 287 286 286 286 286 286 286 286 286 287 287 288 289 289 290 290 291 291 292 292 293 293 294 294 295 295 296
278 278 278 277 277 277 276 276 276 276 275 275 275 274 274 274 274 273 273 272 272 271 270 270 270 270 271 271 272 274 275 276 278 279 280 282 283 284 286 288 289 290 291 293 293 293 293 293 292 291 290 290 290 289 289 289 289 289 288 287 287 287 286 286 286 286 286 286 287 287 288 288 289 290 290 291 291 292 292 292 293 293 294 294 295 296
277 277 276 276 276 276 275 275 275 274 274 274 274 273 273 272 272 272 271 270 270 269 269 269 269 269 270 271 272 273 275 276 278 279 280 281 283 284 286 288 289 290 291 292 293 293 293 293 292 291 291 290 290 289 289 289 289 289 289 288 288 287 287 286 286 286 286 286 287 287 288 288 289 289 290 290 291 291 292 292 293 293 294 294 295 296
276 276 275 275 275 274 274 274 274 273 273 273 272 272 272 271 270 270 269 268 268 267 267 267 268 269 270 271 272 273 274 276 277 278 280 281 283 284 286 288 289 290 291 292 292 293 293 293 293 292 291 290 289 289 289 289 289 289 289 289 289 288 288 287 287 286 286 286 287 287 287 288 288 289 289 290 291 291 292 292 292 293 294 294 295 295
275 274 274 274 273 273 273 273 272 272 272 271 271 271 270 269 268 268 267 266 266 266 266 267 267 268 269 270 272 273 274 275 277 278 280 281 283 284 286 287 289 290 291 292 292 292 292 292 292 292 291 290 289 289 288 289 289 289 289 289 289 289 288 288 287 287 287 287 287 287 287 288 288 289 289 290 290 291 291 292 292 293 293 294 295 295
274 274 273 273 273 272 272 272 271 271 271 270 270 269 268 267 267 266 265 265 265 265 265 266 267 268 269 270 271 273 274 275 277 278 280 281 283 284 286 287 288 289 290 291 292 292 292 292 292 291 291 290 289 288 288 288 289 289 289 290 290 289 289 289 288 288 287 287 287 287 287 288 288 288 289 289 290 290 291 291 292 293 293 294 295 295
274 273 273 272 272 271 271 271 270 270 269 269 268 267 266 266 265 264 264 264 264 264 265 266 267 268 269 270 271 272 274 275 277 278 280 281 283 284 286 287 288 289 290 291 291 292 292 292 292 291 290 290 289 288 287 287 288 289 289 290 290 290 290 289 289 288 288 288 287 287 288 288 288 288 289 289 290 290 291 291 292 293 293 294 294 295
273 273 272 272 271 271 270 270 269 269 268 267 266 266 265 264 264 264 263 263 264 264 265 265 266 267 268 270 271 272 274 275 277 278 280 281 283 284 286 287 288 289 290 290 291 291 292 292 291 291 290 289 288 287 287 287 287 288 289 290 290 290 290 290 289 289 288 288 288 288 288 288 288 288 288 289 289 290 290 291 292 292 293 294 294 295
273 273 272 271 271 270 269 269 268 267 266 266 265 264 264 263 263 263 263 263 263 264 264 265 266 267 268 270 271 272 274 275 277 278 280 281 283 284 285 287 288 288 289 290 291 291 292 292 291 291 290 289 287 287 286 286 287 287 288 289 289 290 290 290 289 289 289 288 288 288 288 288 288 288 288 288 289 289 290 291 291 292 293 293 294 295
273 272 272 271 270 269 269 268 267 266 266 265 264 264 263 263 263 263 263 263 263 264 265 265 266 267 268 270 271 272 274 275 277 278 280 281 283 284 285 286 287 288 289 290 290 291 291 291 291 290 290 288 287 286 285 285 286 286 287 288 289 289 289 289 289 289 289 289 289 288 288 288 288 288 288 288 289 289 290 291 291 292 292 293 294 295
273 272 271 270 269 268 268 267 266 265 265 264 263 263 262 262 262 262 262 263 263 264 265 266 267 268 269 270 271 272 274 275 277 278 280 281 283 284 285 286 287 288 289 290 291 291 291 291 291 290 289 288 286 285 285 284 284 285 286 287 288 288 288 288 289 289 289 289 289 288 288 288 288 288 288 288 289 289 290 290 291 292 292 293 294 295
272 271 271 270 269 268 267 266 265 264 263 263 262 262 261 261 261 262 262 263 263 264 265 266 267 268 269 270 271 273 274 276 277 279 280 282 283 284 285 286 287 288 289 290 291 291 291 291 290 289 288 287 286 284 284 283 283 284 285 286 286 287 287 288 288 288 289 288 288 288 288 288 288 288 288 288 289 289 290 290 291 292 292 293 294 295
271 271 270 269 268 267 265 265 264 263 262 261 261 261 261 261 261 262 262 263 264 264 265 266 267 268 269 270 272 273 275 276 278 279 281 282 283 284 285 286 287 289 289 290 291 291 291 291 290 289 288 286 285 284 283 282 282 283 283 284 285 286 287 287 288 288 288 288 288 288 288 288 288 288 288 288 289 289 290 290 291 292 292 293 294 295
270 269 269 268 267 265 265 263 262 262 261 261 260 260 261 261 262 262 263 263 264 265 266 266 267 268 269 271 272 274 275 277 278 280 281 282 283 284 286 287 288 289 289 290 291 291 291 290 289 288 287 286 284 283 282 281 281 281 282 283 284 286 287 287 287 288 288 288 288 288 288 288 288 288 288 289 289 289 290 290 291 292 292 293 294 295
269 268 267 267 266 265 264 262 261 261 260 260 260 261 261 262 262 263 263 264 264 265 266 267 268 269 270 271 273 275 276 278 279 280 281 282 284 285 286 287 288 288 289 290 291 291 291 290 289 288 286 285 283 282 281 280 280 280 281 282 283 285 286 287 287 288 288 288 288 288 288 288 288 288 288 289 289 289 290 290 291 292 293 293 294 295
268 267 266 265 264 264 263 262 261 261 261 260 261 261 262 262 263 263 264 264 265 266 266 268 269 269 271 272 274 275 277 278 280 281 282 283 284 285 286 287 288 288 289 290 290 290 290 290 289 287 286 284 283 281 280 279 279 279 280 281 282 284 285 286 287 288 288 288 288 288 288 288 288 288 289 289 289 290 290 291 291 292 293 294 295 295
266 266 265 264 263 263 262 261 261 261 261 261 261 262 262 263 264 264 264 265 265 266 267 268 269 270 271 273 275 276 278 279 280 281 282 283 284 285 286 286 287 288 289 290 290 290 290 289 288 287 285 284 282 281 279 279 278 278 279 280 282 283 284 286 287 288 288 288 289 289 288 288 288 289 289 289 289 290 290 291 291 292 293 294 295 296
265 265 264 263 263 262 261 261 261 261 261 261 262 262 263 264 264 264 265 266 266 267 268 269 270 271 273 274 276 277 278 279 280 281 282 283 284 285 285 286 287 288 288 289 289 289 289 288 287 286 285 284 282 281 279 278 278 278 278 279 281 282 284 285 286 287 288 288 288 289 289 289 289 289 289 289 289 290 290 291 292 292 293 294 295 296
265 264 263 263 262 262 261 261 261 261 261 261 262 263 263 264 265 265 266 267 268 268 270 271 272 273 274 275 276 277 278 279 280 281 282 283 284 285 285 286 287 288 288 288 289 288 288 287 286 285 284 283 282 281 280 279 278 278 278 279 280 281 283 284 285 286 287 288 288 289 289 289 289 289 289 290 290 290 291 291 292 293 294 294 295 296
264 264 263 263 262 262 262 261 261 261 262 262 263 263 264 265 266 266 267 268 269 270 271 272 273 274 275 276 277 277 278 279 280 281 282 283 284 284 285 286 287 287 288 288 288 288 287 286 285 284 283 282 281 281 280 279 278 278 278 278 279 280 282 283 284 285 286 287 288 288 289 289 289 289 290 290 290 291 291 292 292 293 294 295 295 296
264 264 263 263 263 263 263 263 263 263 263 263 264 264 265 266 267 267 268 269 270 270 271 272 273 274 275 276 276 277 278 279 280 281 281 282 283 284 285 285 286 287 287 288 287 287 287 286 284 283 282 281 281 280 280 279 278 278 278 278 279 280 281 282 284 285 286 287 287 288 288 289 289 290 290 290 291 291 292 292 293 293 294 295 295 296
264 264 264 264 264 264 264 264 264 264 264 264 265 265 266 267 267 268 269 269 270 271 271 272 273 274 274 275 276 277 278 278 279 280 281 282 283 284 284 285 286 287 287 287 287 287 286 285 284 283 282 281 280 280 280 279 279 278 278 278 278 279 281 282 283 284 285 286 287 287 288 289 289 290 290 291 291 292 292 293 293 294 294 295 295 296
Height
10566 10564 10562 10561 10560 10557 10554 10553 10553 10552 10550 10548 10547 10546 10544 10542 10541 10539 10538 10536 10534 10533 10531 10530 10528 10526 10524 10522 10521 10519 10518 10516 10514 10512 10511 10509 10507 10506 10504 10502 10501 10499 10498 10497 10495 10494 10492 10491 10489 10487 10486 10484 10483 10482 10480 10479 10477 10476 10474 10473 10472 10471 10469 10468 10467 10466 10464 10463 10462 10461 10460 10459 10457 10457 10456 10454 10453 10452 10451 10449 10449 10447 10447 10446 10445 10444
10560 10557 10556 10556 10555 10552 10549 10547 10547 10546 10544 10542 10541 10539 10538 10537 10535 10533 10532 10530 10529 10527 10526 10524 10522 10521 10519 10517 10516 10514 10512 10511 10509 10507 10506 10504 10503 10501 10499 10498 10496 10495 10494 10492 10491 10489 10488 10486 10485 10484 10482 10481 10479 10477 10476 10475 10473 10472 10471 10469 10468 10467 10466 10465 10464 10462 10461 10461 10459 10458 10457 10456 10455 10454 10452 10451 10450 10449 10448 10447 10446 10445 10444 10443 10442 10442
10553 10551 10549 10547 10547 10546 10544 10542 10541 10539 10538 10537 10535 10533 10532 10531 10529 10527 10526 10524 10522 10521 10520 10519 10517 10515 10513 10511 10510 10509 10507 10506 10504 10502 10501 10500 10498 10497 10495 10493 10492 10491 10489 10488 10486 10485 10484 10482 10481 10479 10478 10476 10475 10474 10472 10471 10469 10468 10467 10466 10465 10464 10462 10461 10461 10459 10458 10457 10456 10455 10454 10453 10452 10451 10449 10449 10447 10446 10445 10444 10443 10442 10441 10441 10440 10439
10547 10544 10542 10541 10540 10539 10537 10536 10535 10533 10532 10531 10529 10527 10526 10524 10522 10520 10519 10518 10517 10515 10514 10512 10511 10509 10507 10506 10504 10503 10502 10501 10499 10497 10496 10495 10494 10492 10491 10489 10487 10486 10484 10483 10482 10481 10479 10478 10477 10476 10474 10472 10471 10469 10468 10467 10466 10464 10463 10462 10461 10460 10459 10458 10457 10456 10455 10454 10452 10452 10451 10449 10449 10447 10447 10446 10444 10444 10442 10441 10441 10439 10439 10438 10437 10437
10540 10538 10536 10534 10533 10532 10531 10530 10529 10527 10526 10524 10523 10522 10519 10517 10516 10514 10512 10511 10511 10509 10508 10506 10505 10504 10502 10501 10499 10497 10496 10495 10494 10492 10491 10490 10489 10487 10486 10484 10483 10482 10481 10479 10478 10477 10476 10474 10473 10471 10470 10469 10467 10466 10464 10463 10462 10461 10460 10459 10457 10457 10456 10454 10454 10452 10452 10451 10449 10449 10447 10447 10446 10444 10444 10442 10442 10441 10440 10439 10438 10437 10436 10436 10435 10434
10532 10531 10529 10528 10527 10525 10524 10523 10522 10521 10519 10518 10517 10515 10513 10511 10510 10509 10507 10506 10504 10502 10501 10501 10499 10498 10497 10495 10493 10492 10491 10490 10489 10487 10486 10485 10484 10482 10481 10480 10479 10477 10476 10475 10474 10472 10471 10470 10469 10467 10466 10465 10464 10462 10461 10459 10458 10457 10456 10455 10454 10453 10452 10451 10451 10449 10448 10447 10446 10446 10444 10444 10442 10442 10441 10440 10439 10438 10437 10437 10436 10435 10434 10433 10432 10432
10525 10524 10522 10521 10520 10519 10517 10516 10516 10514 10514 10511 10509 10507 10506 10505 10504 10502 10501 10501 10499 10497 10496 10494 10494 10492 10491 10490 10488 10487 10486 10484 10484 10482 10481 10481 10479 10478 10477 10476 10474 10473 10472 10471 10469 10468 10467 10466 10464 10464 10462 10461 10460 10459 10457 10456 10455 10454 10453 10452 10451 10450 10449 10448 10447 10446 10445 10444 10444 10442 10442 10441 10440 10439 10438 10437 10437 10436 10435 10434 10434 10432 10432 10431 10431 10430
10518 10516 10515 10514 10513 10512 10510 10509 10509 10508 10507 10505 10502 10501 10500 10499 10497 10496 10496 10494 10493 10491 10490 10489 10488 10487 10486 10484 10483 10482 10481 10479 10479 10477 10477 10476 10475 10474 10472 10471 10470 10469 10468 10467 10466 10464 10463 10462 10461 10459 10458 10457 10456 10455 10454 10452 10452 10451 10449 10449 10447 10447 10446 10445 10444 10443 10442 10441 10441 10440 10439 10438 10437 10437 10436 10435 10434 10434 10433 10432 10431 10431 10430 10429 10428 10427
10511 10509 10508 10507 10506 10505 10504 10502 10501 10501 10501 10499 10497 10495 10494 10492 10491 10490 10489 10488 10486 10485 10485 10484 10482 10481 10481 10479 10478 10477 10476 10475 10474 10473 10472 10471 10470 10469 10468 10467 10466 10465 10464 10462 10461 10461 10459 10458 10457 10456 10454 10453 10452 10451 10450 10449 10448 10447 10446 10446 10444 10444 10443 10442 10441 10441 10440 10439 10438 10437 10436 10436 10435 10434 10434 10432 10432 10431 10431 10430 10429 10428 10427 10427 10426 10426
10504 10503 10502 10501 10499 10499 10497 10496 10494 10494 10494 10492 10491 10489 10487 10486 10485 10483 10482 10481 10480 10479 10479 10478 10477 10476 10475 10474 10473 10472 10471 10470 10469 10468 10467 10466 10466 10464 10464 10462 10462 10461 10460 10459 10457 10456 10455 10454 10453 10452 10451 10450 10449 10447 10447 10446 10445 10444 10443 10442 10442 10441 10440 10439 10439 10438 10437 10436 10436 10435 10434 10433 10432 10432 10431 10431 10429 10429 10428 10427 10427 10426 10426 10425 10424 10424
10498 10497 10496 10494 10493 10492 10491 10490 10488 10487 10487 10486 10484 10482 10482 10481 10479 10478 10476 10475 10474 10474 10474 10473 10472 10471 10470 10469 10468 10467 10466 10466 10464 10464 10463 10462 10461 10460 10459 10458 10457 10457 10456 10454 10454 10452 10451 10451 10449 10448 10447 10446 10445 10444 10444 10442 10442 10441 10440 10439 10439 10438 10437 10436 10436 10435 10434 10434 10433 10432 10431 10431 10430 10429 10429 10428 10427 10427 10426 10425 10424 10424 10423 10422 10422 10422
10491 10491 10489 10488 10487 10486 10485 10484 10482 10482 10481 10480 10478 10477 10476 10474 10474 10472 10471 10469 10469 10469 10468 10467 10467 10466 10465 10464 10463 10462 10462 10461 10460 10459 10458 10457 10457 10456 10455 10454 10453 10452 10451 10451 10449 10449 10447 10447 10446 10444 10444 10442 10442 10441 10440 10439 10439 10438 10437 10436 10436 10435 10434 10434 10433 10432 10432 10431 10431 10429 10429 10428 10427 10427 10426 10426 10425 10424 10424 10423 10422 10422 10421 10421 10420 10419
10485 10484 10483 10482 10481 10479 10479 10478 10477 10476 10474 10474 10472 10471 10469 10469 10467 10467 10466 10464 10464 10463 10463 10462 10461 10461 10460 10459 10458 10457 10457 10456 10455 10454 10454 10453 10452 10452 10451 10450 10449 10448 10447 10446 10446 10444 10444 10443 10442 10441 10440 10439 10438 10437 10437 10436 10436 10435 10434 10433 10432 10432 10431 10431 10430 10429 10429 10428 10427 10427 10426 10426 10425 10424 10424 10423 10422 10422 10421 10421 10420 10419 10419 10419 10418 10417
10478 10477 10476 10475 10474 10473 10472 10472 10471 10470 10468 10467 10466 10466 10464 10463 10462 10461 10460 10459 10458 10458 10458 10457 10456 10455 10454 10454 10454 10453 10452 10451 10451 10450 10449 10449 10448 10447 10447 10446 10445 10444 10443 10442 10441 10441 10440 10439 10438 10437 10437 10436 10435 10434 10434 10433 10432 10432 10431 10431 10430 10429 10429 10428 10427 10427 10426 10426 10425 10424 10424 10423 10422 10422 10421 10421 10420 10419 10419 10419 10418 10417 10417 10416 10416 10415
10471 10471 10470 10469 10467 10467 10467 10466 10465 10464 10462 10461 10461 10460 10459 10457 10456 10456 10455 10454 10453 10453 10452 10452 10451 10450 10449 10449 10449 10448 10447 10447 10446 10445 10444 10444 10444 10443 10443 10442 10441 10440 10439 10439 10437 10437 10436 10436 10435 10434 10433 10432 10432 10431 10431 10430 10429 10429 10428 10427 10427 10426 10426 10425 10424 10424 10424 10423 10422 10422 10421 10421 10420 10419 10419 10418 10417 10417 10417 10416 10416 10415 10414 10414 10413 10413
10465 10464 10463 10462 10461 10461 10460 10460 10459 10457 10456 10456 10455 10454 10453 10452 10451 10450 10450 10449 10448 10448 10447 10447 10446 10445 10444 10444 10444 10444 10443 10442 10441 10441 10441 10440 10439 10439 10439 10438 10437 10436 10436 10435 10434 10433 10432 10432 10431 10431 10429 10429 10428 10427 10427 10426 10426 10426 10425 10424 10424 10423 10423 10422 10422 10421 10421 10420 10419 10419 10419 10418 10417 10417 10416 10416 10415 10414 10414 10413 10413 10412 10412 10411 10411 10410
10459 10458 10457 10456 10455 10454 10454 10453 10452 10451 10451 10449 10449 10448 10447 10446 10446 10445 10444 10444 10443 10442 10442 10442 10441 10441 10440 10439 10439 10439 10439 10438 10437 10436 10436 10436 10435 10435 10435 10434 10433 10432 10432 10431 10431 10430 10429 10429 10428 10427 10426 10426 10425 10424 10424 10423 10422 10422 10422 10421 10421 10420 10420 10419 10419 10418 10417 10417 10417 10416 10416 10415 10414 10414 10413 10413 10412 10412 10411 10411 10410 10409 10409 10409 10408 10407
10452 10452 10451 10450 10449 10448 10447 10447 10446 10446 10444 10444 10443 10442 10442 10441 10441 10440 10439 10439 10438 10437 10437 10437 10436 10436 10436 10435 10434 10434 10435 10434 10432 10432 10432 10431 10431 10431 10431 10431 10429 10429 10428 10427 10427 10426 10426 10425 10424 10424 10423 10422 10422 10421 10421 10420 10419 10419 10419 10418 10417 10417 10417 10416 10416 10416 10415 10414 10414 10413 10412 10412 10411 10411 10411 10410 10409 10409 10408 10407 10407 10407 10406 10406 10405 10404
10446 10446 10445 10444 10443 10442 10441 10441 10440 10439 10439 10438 10437 10437 10436 10436 10435 10435 10434 10434 10433 10433 10432 10432 10432 10431 10431 10431 10431 10430 10431 10430 10429 10428 10427 10427 10427 10427 10427 10427 10426 10425 10424 10424 10423 10422 10422 10422 10421 10420 10419 10419 10418 10417 10417 10417 10416 10416 10415 10415 10414 10414 10414 10413 10412 10412 10412 10411 10411 10410 10409 10409 10409 10408 10407 10407 10406 10406 10406 10405 10404 10404 10403 10402 10402 10401
10440 10439 10439 10437 10437 10436 10435 10435 10434 10434 10433 10432 10432 10432 10431 10431 10430 10429 10429 10429 10429 10428 10428 10428 10427 10427 10427 10427 10426 10426 10426 10426 10425 10424 10424 10423 10423 10423 10423 10423 10422 10421 10421 10420 10419 10419 10419 10418 10417 10417 10416 10416 10415 10414 10414 10414 10413 10412 10412 10412 10411 10411 10411 10410 10409 10409 10409 10408 10407 10407 10406 10406 10406 10405 10404 10404 10403 10403 10402 10402 10401 10401 10400 10399 10399 10398
10434 10433 10432 10432 10431 10430 10429 10429 10429 10428 10428 10427 10427 10426 10426 10426 10425 10424 10424 10424 10424 10424 10423 10423 10423 10422 10422 10422 10422 10422 10422 10422 10421 10420 10420 10419 10419 10419 10419 10419 10419 10418 10417 10416 10416 10416 10415 10414 10414 10413 10412 10412 10411 10411 10411 10410 10409 10409 10409 10408 10408 10407 10407 10407 10406 10406 10405 10405 10404 10404 10403 10402 10402 10402 10401 10401 10400 10399 10399 10399 10398 10397 10397 10396 10396 10394
10428 10427 10426 10426 10426 10425 10424 10424 10423 10423 10422 10422 10422 10421 10421 10421 10420 10420 10419 10419 10419 10419 10419 10419 10419 10419 10419 10418 10418 10417 10418 10417 10417 10416 10416 10416 10416 10415 10416 10416 10415 10414 10414 10413 10412 10412 10412 10411 10410 10409 10409 10409 10408 10407 10407 10407 10406 10406 10405 10405 10404 10404 10404 10403 10402 10402 10402 10401 10401 10401 10400 10399 10399 10399 10398 10397 10397 10396 10396 10395 10394 10394 10393 10392 10392 10391
10422 10421 10421 10420 10419 10419 10419 10418 10417 10417 10417 10417 10416 10416 10416 10416 10416 10415 10415 10415 10415 10415 10415 10414 10414 10414 10414 10414 10414 10414 10414 10414 10413 10413 10412 10412 10411 10411 10412 10412 10411 10411 10410 10410 10409 10409 10408 10407 10407 10406 10406 10405 10404 10404 10404 10403 10402 10402 10402 10401 10401 10401 10400 10399 10399 10399 10399 10398 10397 10397 10397 10396 10396 10395 10394 10394 10394 10393 10392 10392 10391 10391 10390 10389 10389 10388
10416 10416 10415 10414 10414 10414 10413 10413 10412 10412 10412 10412 10411 10411 10411 10411 10411 10411 10411 10411 10411 10411 10411 10411 10411 10410 10410 10411 10410 10410 10410 10410 10410 10409 10409 10408 10408 10407 10408 10408 10407 10407 10406 10406 10406 10406 10404 10404 10403 10402 10402 10401 10401 10401 10400 10400 10399 10399 10398 10398 10397 10397 10396 10396 10396 10396 10395 10394 10394 10394 10393 10392 10392 10392 10391 10391 10390 10389 10389 10388 10388 10387 10387 10386 10385 10384
10411 10410 10409 10409 10409 10409 10408 10408 10407 10407 10407 10407 10407 10406 10406 10406 10406 10406 10406 10406 10407 10407 10406 10406 10406 10406 10406 10406 10406 10406 10406 10406 10406 10406 10405 10404 10404 10404 10404 10404 10404 10403 10402 10402 10402 10402 10401 10400 10399 10399 10398 10398 10397 10397 10397 10396 10396 10395 10395 10394 10394 10394 10393 10392 10392 10392 10391 10391 10391 10390 10389 10389 10389 10388 10387 10387 10387 10386 10386 10385 10384 10384 10383 10382 10382 10381
10405 10405 10404 10404 10404 10404 10403 10403 10403 10402 10402 10402 10402 10402 10402 10402 10402 10402 10402 10402 10402 10402 10402 10402 10402 10402 10402 10403 10402 10402 10402 10402 10402 10402 10402 10401 10401 10400 10400 10401 10400 10399 10399 10399 10399 10398 10397 10397 10396 10396 10395 10394 10394 10394 10393 10392 10392 10392 10391 10391 10391 10390 10389 10389 10389 10388 10388 10387 10387 10386 10386 10386 10385 10384 10384 10384 10383 10382 10382 10381 10381 10380 10379 10379 10378 10377
10399 10399 10399 10399 10399 10399 10399 10398 10398 10398 10398 10398 10398 10397 10398 10398 10398 10398 10398 10398 10399 10399 10399 10399 10399 10399 10399 10399 10399 10399 10399 10399 10399 10399 10399 10398 10397 10397 10396 10396 10396 10396 10395 10395 10395 10394 10394 10393 10392 10392 10391 10391 10391 10390 10389 10389 10389 10388 10387 10387 10387 10386 10386 10386 10385 10384 10384 10384 10383 10382 10382 10382 10381 10381 10381 10380 10379 10379 10378 10378 10377 10377 10376 10376 10374 10374
10394 10394 10394 10394 10394 10394 10394 10394 10394 10394 10394 10394 10394 10394 10394 10394 10394 10394 10394 10394 10395 10395 10395 10395 10395 10395 10395 10396 10396 10396 10396 10396 10396 10395 10396 10395 10394 10393 10393 10393 10392 10392 10392 10391 10391 10391 10391 10389 10389 10388 10388 10387 10387 10386 10386 10386 10385 10384 10384 10384 10383 10382 10382 10382 10381 10381 10381 10380 10379 10379 10379 10378 10377 10377 10377 10376 10376 10376 10375 10374 10374 10373 10372 10372 10371 10370
10389 10389 10389 10389 10389 10389 10389 10389 10389 10389 10389 10389 10389 10390 10390 10390 10390 10390 10390 10391 10391 10391 10391 10391 10391 10392 10392 10392 10392 10392 10392 10392 10392 10392 10392 10392 10391 10390 10390 10389 10389 10389 10388 10387 10387 10387 10387 10386 10386 10385 10384 10384 10384 10383 10382 10382 10382 10381 10381 10380 10379 10379 10379 10378 10377 10377 10377 10376 10376 10376 10375 10374 10374 10374 10373 10372 10372 10372 10371 10371 10370 10369 10369 10368 10367 10367
10384 10384 10384 10384 10384 10384 10384 10384 10385 10385 10385 10386 10386 10386 10386 10386 10386 10386 10386 10387 10387 10387 10387 10387 10387 10388 10388 10388 10388 10388 10388 10388 10389 10389 10389 10388 10387 10386 10386 10386 10386 10385 10385 10384 10383 10382 10382 10382 10382 10382 10381 10381 10380 10380 10379 10379 10378 10377 10377 10377 10376 10376 10375 10374 10374 10374 10373 10372 10372 10372 10371 10371 10371 10370 10369 10369 10369 10368 10367 10367 10366 10366 10365 10364 10364 10363
10379 10379 10379 10379 10379 10380 10380 10381 10381 10381 10381 10382 10382 10382 10382 10382 10382 10383 10383 10383 10384 10384 10384 10384 10384 10384 10384 10384 10385 10384 10384 10384 10385 10386 10386 10384 10384 10383 10383 10382 10382 10381 10381 10381 10380 10379 10379 10378 10378 10378 10378 10377 10377 10376 10376 10376 10375 10374 10374 10373 10372 10372 10372 10371 10371 10370 10369 10369 10368 10368 10367 10367 10367 10366 10366 10365 10364 10364 10364 10363 10362 10362 10361 10361 10360 10359
10376 10375 10375 10375 10376 10376 10376 10376 10376 10377 10377 10377 10378 10378 10379 10379 10379 10379 10379 10380 10380 10380 10380 10380 10381 10381 10381 10381 10381 10381 10381 10381 10381 10382 10382 10381 10380 10379 10379 10379 10378 10378 10377 10377 10377 10376 10376 10374 10374 10374 10374 10374 10373 10372 10372 10372 10371 10371 10370 10369 10369 10369 10368 10367 10367 10366 10366 10365 10364 10364 10364 10363 10363 10362 10362 10361 10361 10360 10359 10359 10359 10358 10357 10356 10356 10355
10371 10371 10371 10371 10371 10371 10372 10372 10372 10373 10373 10374 10374 10374 10375 10375 10376 10376 10376 10376 10376 10377 10377 10377 10377 10377 10377 10377 10377 10377 10377 10377 10377 10378 10378 10377 10377 10376 10376 10376 10375 10374 10374 10374 10374 10373 10372 10371 10371 10371 10370 10370 10369 10369 10369 10368 10367 10367 10366 10366 10366 10365 10364 10364 10363 10362 10362 10361 10361 10361 10360 10359 10359 10359 10358 10357 10357 10356 10356 10355 10354 10354 10353 10352 10352 10351
10367 10367 10367 10367 10367 10367 10367 10368 10369 10369 10369 10369 10370 10371 10371 10371 10372 10372 10372 10372 10373 10373 10373 10373 10373 10373 10373 10374 10373 10373 10373 10374 10374 10374 10374 10374 10373 10372 10372 10372 10371 10371 10371 10370 10370 10369 10369 10368 10367 10367 10366 10366 10366 10366 10365 10364 10364 10364 10363 10362 10362 10361 10361 10360 10359 10359 10358 10357 10357 10356 10356 10356 10355 10354 10354 10353 10353 10352 10352 10351 10351 10349 10349 10348 10347 10347
10362 10362 10362 10363 10363 10363 10364 10364 10364 10365 10365 10366 10366 10367 10367 10367 10368 10368 10369 10369 10369 10369 10370 10370 10370 10370 10370 10370 10369 10369 10369 10370 10371 10371 10371 10371 10369 10369 10369 10368 10367 10367 10367 10366 10366 10366 10365 10364 10364 10364 10363 10362 10361 10361 10361 10361 10361 10359 10359 10358 10357 10357 10356 10356 10356 10355 10354 10354 10353 10352 10352 10352 10351 10351 10350 10349 10349 10348 10347 10347 10346 10346 10345 10344 10344 10342
10358 10358 10359 10359 10359 10359 10359 10360 10361 10361 10361 10362 10362 10363 10363 10364 10364 10364 10365 10365 10366 10366 10366 10366 10366 10366 10366 10366 10366 10366 10366 10366 10367 10367 10367 10367 10366 10366 10365 10364 10364 10364 10363 10362 10362 10362 10361 10361 10361 10360 10359 10359 10357 10357 10357 10357 10357 10356 10355 10354 10354 10353 10352 10352 10351 10351 10350 10349 10349 10349 10348 10347 10347 10346 10346 10345 10344 10344 10343 10342 10342 10341 10341 10340 10339 10338
10354 10354 10354 10354 10355 10356 10356 10356 10356 10357 10357 10358 10359 10359 10359 10360 10360 10361 10361 10361 10362 10362 10362 10362 10362 10363 10363 10363 10362 10362 10362 10362 10363 10363 10363 10362 10362 10362 10361 10361 10360 10360 10359 10359 10358 10358 10357 10357 10356 10356 10356 10355 10354 10353 10352 10352 10352 10352 10351 10351 10350 10349 10348 10347 10347 10347 10346 10346 10345 10344 10344 10344 10343 10342 10342 10341 10341 10340 10339 10339 10338 10337 10336 10336 10335 10334
10350 10350 10350 10351 10351 10351 10352 10352 10352 10353 10354 10354 10354 10355 10356 10356 10356 10357 10357 10357 10358 10358 10359 10359 10359 10359 10359 10359 10359 10359 10359 10359 10359 10359 10359 10359 10359 10358 10357 10356 10356 10356 10356 10355 10354 10354 10354 10353 10352 10352 10351 10351 10350 10349 10349 10349 10348 10348 10347 10347 10346 10346 10344 10344 10343 10342 10342 10342 10341 10341 10340 10339 10339 10338 10337 10337 10336 10336 10335 10334 10334 10333 10332 10331 10331 10330
10346 10346 10346 10347 10347 10347 10348 10348 10349 10349 10350 10350 10351 10351 10352 10352 10352 10353 10353 10354 10354 10354 10355 10355 10355 10355 10355 10355 10355 10355 10355 10355 10355 10355 10355 10355 10354 10354 10354 10352 10352 10352 10351 10351 10351 10350 10349 10349 10349 10348 10347 10347 10346 10346 10345 10345 10344 10344 10343 10342 10342 10341 10341 10340 10339 10339 10338 10337 10337 10336 10336 10335 10334 10334 10333 10332 10332 10332 10331 10331 10330 10329 10328 10327 10326 10326
10342 10342 10342 10343 10343 10344 10344 10344 10345 10346 10346 10346 10347 10347 10348 10348 10349 10349 10349 10350 10350 10351 10351 10351 10351 10351 10351 10351 10351 10351 10351 10351 10351 10351 10351 10351 10350 10350 10349 10349 10348 10347 10347 10347 10346 10346 10346 10345 10344 10344 10344 10343 10342 10341 10341 10341 10341 10340 10339 10339 10337 10337 10336 10336 10335 10334 10334 10334 10333 10332 10331 10331 10330 10329 10329 10329 10328 10327 10327 10326 10326 10325 10324 10323 10322 10321
10338 10338 10339 10339 10339 10340 10341 10341 10341 10342 10342 10342 10343 10343 10344 10344 10344 10345 10345 10346 10346 10346 10347 10347 10347 10347 10347 10347 10347 10347 10347 10347 10347 10347 10346 10346 10346 10346 10345 10344 10344 10343 10343 10342 10342 10342 10341 10341 10340 10339 10339 10339 10338 10337 10337 10337 10337 10336 10336 10334 10333 10332 10332 10332 10331 10331 10330 10329 10329 10328 10327 10326 10326 10325 10325 10324 10324 10323 10322 10322 10321 10320 10319 10319 10318 10317
10334 10334 10335 10336 10336 10336 10337 10337 10338 10338 10339 10339 10339 10339 10340 10340 10341 10341 10341 10342 10342 10342 10342 10343 10343 10343 10342 10342 10342 10343 10342 10342 10342 10342 10342 10342 10341 10341 10341 10340 10340 10339 10339 10338 10337 10337 10337 10336 10336 10335 10335 10334 10334 10334 10333 10333 10333 10332 10331 10330 10329 10328 10327 10327 10327 10327 10326 10325 10324 10324 10323 10322 10321 10321 10320 10320 10319 10319 10318 10317 10317 10316 10315 10314 10314 10312
10331 10331 10331 10332 10332 10333 10334 10334 10334 10334 10334 10335 10335 10336 10336 10336 10337 10337 10337 10337 10337 10338 10338 10339 10339 10339 10338 10338 10338 10338 10338 10338 10338 10338 10337 10337 10337 10337 10336 10336 10336 10335 10334 10334 10332 10332 10332 10332 10331 10331 10330 10330 10330 10329 10329 10329 10329 10328 10327 10326 10325 10324 10322 10322 10322 10322 10322 10321 10320 10319 10319 10318 10317 10316 10316 10316 10315 10314 10314 10313 10312 10311 10311 10310 10309 10308
10327 10327 10328 10328 10329 10329 10330 10330 10330 10331 10331 10331 10331 10332 10332 10332 10333 10333 10333 10333 10334 10334 10334 10334 10334 10334 10334 10334 10334 10333 10333 10334 10334 10333 10333 10332 10332 10332 10332 10331 10331 10331 10330 10329 10328 10327 10327 10327 10326 10326 10326 10326 10325 10325 10325 10325 10325 10324 10323 10322 10321 10319 10318 10317 10317 10317 10317 10316 10316 10315 10314 10314 10312 10312 10311 10311 10311 10310 10309 10309 10307 10307 10306 10306 10304 10304
10324 10324 10324 10325 10325 10326 10326 10326 10326 10327 10327 10327 10327 10328 10328 10329 10329 10329 10329 10329 10329 10329 10329 10330 10330 10330 10329 10329 10329 10329 10329 10329 10329 10329 10328 10328 10328 10327 10327 10327 10326 10326 10326 10325 10324 10323 10322 10322 10321 10321 10321 10321 10321 10320 10320 10321 10321 10320 10319 10318 10317 10316 10314 10314 10314 10313 10312 10311 10311 10310 10309 10309 10308 10307 10307 10306 10306 10306 10305 10304 10303 10302 10302 10301 10300 10299
10320 10321 10321 10321 10321 10322 10322 10322 10322 10323 10323 10323 10324 10324 10324 10324 10325 10325 10325 10325 10325 10325 10325 10326 10326 10325 10324 10324 10324 10324 10324 10324 10323 10324 10324 10323 10323 10322 10322 10322 10322 10321 10321 10320 10319 10319 10318 10317 10316 10316 10316 10316 10315 10315 10316 10316 10316 10315 10314 10314 10312 10311 10310 10310 10309 10309 10307 10307 10306 10305 10305 10304 10304 10303 10302 10302 10301 10301 10300 10300 10299 10298 10297 10296 10296 10294
10317 10317 10317 10317 10317 10318 10318 10319 10319 10319 10319 10319 10319 10320 10320 10320 10320 10321 10321 10321 10321 10321 10321 10321 10321 10321 10320 10320 10320 10320 10319 10319 10318 10318 10318 10318 10318 10318 10317 10317 10317 10316 10316 10316 10315 10314 10314 10312 10312 10311 10311 10310 10310 10310 10311 10311 10311 10311 10310 10309 10308 10307 10306 10306 10305 10304 10304 10302 10301 10300 10300 10299 10299 10298 10297 10297 10296 10296 10296 10295 10294 10294 10293 10292 10291 10290
10314 10314 10314 10314 10314 10314 10314 10315 10315 10315 10315 10315 10315 10316 10316 10316 10316 10316 10316 10316 10316 10316 10316 10316 10316 10316 10316 10316 10315 10315 10314 10314 10314 10313 10313 10313 10313 10313 10312 10312 10312 10311 10311 10311 10310 10309 10309 10308 10307 10307 10306 10306 10305 10304 10305 10306 10306 10306 10305 10304 10304 10303 10302 10301 10301 10300 10299 10298 10297 10296 10295 10294 10294 10292 10292 10292 10291 10291 10291 10291 10290 10289 10288 10287 10286 10285
10310 10310 10310 10310 10311 10311 10311 10311 10311 10311 10311 10311 10311 10311 10311 10311 10312 10312 10311 10311 10311 10311 10311 10311 10311 10311 10311 10311 10311 10310 10310 10309 10309 10308 10308 10308 10308 10307 10307 10307 10307 10306 10306 10306 10305 10304 10303 10302 10302 10302 10301 10301 10301 10300 10299 10300 10301 10301 10300 10299 10299 10298 10297 10297 10297 10296 10295 10294 10292 10291 10291 10289 10289 10288 10287 10287 10286 10286 10286 10286 10285 10284 10284 10282 10281 10281
10306 10306 10306 10306 10307 10307 10307 10307 10307 10307 10307 10307 10307 10307 10307 10307 10307 10307 10307 10307 10307 10307 10307 10306 10306 10306 10306 10306 10306 10305 10305 10304 10304 10303 10303 10303 10303 10302 10302 10302 10301 10301 10300 10300 10299 10299 10298 10297 10296 10296 10297 10297 10296 10296 10295 10294 10294 10295 10294 10294 10294 10294 10293 10292 10292 10292 10291 10290 10288 10287 10286 10285 10284 10284 10282 10282 10281 10280 10280 10280 10280 10280 10279 10278 10277 10276
10302 10302 10302 10302 10302 10302 10302 10302 10302 10302 10302 10302 10302 10302 10302 10302 10302 10302 10302 10302 10302 10302 10302 10302 10302 10301 10301 10301 10301 10300 10300 10299 10299 10298 10298 10298 10297 10297 10297 10296 10296 10296 10295 10294 10294 10293 10292 10292 10291 10290 10291 10292 10292 10292 10291 10289 10289 10289 10289 10289 10289 10289 10289 10288 10287 10287 10287 10286 10284 10283 10282 10281 10280 10279 10278 10277 10276 10275 10274 10274 10275 10274 10274 10273 10272 10271